Location: Mercogliano
(40.9167°N, 14.7333°E)
Time: 13:46:09
(UTC+00:00)

Cosmos 1707 - Pass Details

Date: 18 September 2020
Orbit: 515 x 530 km, 82.5° (Epoch: 28 October)

Event Time Altitude Azimuth Distance (km) Brightness Sun altitude
Rises 17:42:25 0° 6° (N) 2,648 6.3 -8.0°
Reaches altitude 10° 17:44:56 10° 22° (NNE) 1,753 5.3 -8.4°
Maximum altitude 17:47:58 22° 74° (ENE) 1,172 4.0 -9.0°
Enters shadow 17:50:53 10° 126° (SE) 1,712 4.8 -9.5°
